Погода в Смидовиче

Погода в Смидовиче : погода сейчас, прогноз погоды и архив. Всё, что Вы хотите узнать о погоде в Смидовиче!

Поиск расширенной информации на нашем сайте:

Другие новости

Новости СМИ2

Главная страница сайта

Новости сайта

03.07.2017

Напоминаем, что на нашем специализированном сайте Метеоцентр.Азия вы можете получить высокодетализированные автоматические прогнозы погоды по пунктам России, СНГ и мира в авиационном формате (включающие направление и скорость ветра, видимость, явления погоды, количество и форму облачности, нижнюю и верхнюю границу облачности).


Погода в Смидовиче - сегодня

Время (UTC), дата Ветер
(°,м/с) 
Видим.   Явления Облачность Т
(°С)
Тd
(°С)
f(%) Тe
(°С)
Pmin
(гПа)
dP
(гПа)
Po
(мм)
O2
(г/м3)
Тmin Tmax R s Состояние
почвы
06 09.12.17 200 (Ю) 20000 м    ясно 
-20.9 -26.5 61 -24  1016.2  757  332           
09 09.12.17 180 (Ю) 20000 м    ясно 
-25.9 -29 75 -26  1017.2  0.9  758  339    -20.4  0.3     
12 09.12.17 250 (З) 20000 м    ясно 
-24.7 -27.8 75 -28  1017.9  0.7  758  338           
15 09.12.17 170 (Ю) 20000 м    ясно 
-30.8 -34.7 68 -32  1018.1  758  346           
18 09.12.17 250 (З) 20000 м    ясно 
-30 -33.9 69 -31  1018.6  0.6  759  345           
21 09.12.17 040 (СВ) 20000 м    ясно 
-31.7 -35.7 68 -33  1018.5  -0.2  758  348  -32.8      11  равномерный
сухой снег
100% 
00 10.12.17 020 (С) 20000 м    10/0 верхняя 
[Ci]
-28.6 -32.4 70 -29  1018.8  0.4  759  343           
03 10.12.17 020 (С) 20000 м    10/0 верхняя 
[Cs]
-21.5 -24.7 75 -24  1017.5  -1.1  758  333           
06 10.12.17 020 (С) 20000 м    10/0 средняя, верхняя 
[Ac lent|Cs]
-18.2 -23 66 -21  1015.9  -1.5  757  328           
09 10.12.17 020 (С) 20000 м    10/0 средняя, верхняя 
[Ac lent|Cs]
-18.9 -24.5 61 -23  1016.2  0.3  757  329    -18.1       
12 10.12.17 020 (С) 20000 м    4/0 средняя 
[Ac lent]
-18.7 -24.8 59 -21  1015.9  -0.2  757  329           
15 10.12.17 360 (С) 20000 м    10/0 средняя 
[Ac und]
-19.1 -23.9 66 -22  1015.1  -0.8  756  329           
18 10.12.17 360 (С) 20000 м    10/3 600 м кучево-дожд., средняя 
[Cb cap|Ac As]
-18.7 -22.7 71 -21  1013.6  -1.5  755  328           
21 10.12.17 010 (С) 20000 м    10/4 600 м кучево-дожд., средняя 
[Cb cap|Ac As]
-15.7 -19.5 73 -16  1011.9  -1.6  754  324  -19.9      11  равномерный
сухой снег
100% 
00 11.12.17 030 (СВ) 5-11{12}  20000 м    10/6 600 м кучево-дожд., средняя 
[Cb cap|Ac cast]
-11.5 -17.8 60 -16  1010.9  -0.9  753  318           
03 11.12.17 030 (СВ) 7-14{14}  4000 м  ливневой снег  10/10 600 м кучево-дожд. 
[Cb cap]
-10.2 -16.7 59 -16  1008.8  -2  752  316           
06 11.12.17 020 (С) 7-13{15}  1000 м  ливневой снег  10/10 600 м кучево-дожд. 
[Cb cap]
-11.4 -15.8 70 -18  1007.6  -1.2  751  317           
09 11.12.17 030 (СВ) 6-11{15}  4000 м  слаб. ливневой снег  10/10 600 м кучево-дожд. 
[Cb cap]
-11.9 -16.1 71 -18  1007.6  -0.1  751  318    -10.2  0.7     
12 11.12.17 010 (С) 5{14}  10 км  слаб. ливневой снег  10/10 600 м кучево-дожд. 
[Cb cap]
-11.7 -14.6 79 -17  1006.8  -0.8  750  317           
15 11.12.17 020 (С) 4000 м  ливневой снег  10/10 600 м кучево-дожд. 
[Cb cap]
-11.1 -13.6 82 -16  1005.8  -1  749  316           
18 11.12.17 010 (С) 4{11}  4000 м  ливневой снег  10/10 600 м кучево-дожд. 
[Cb cap]
-11 -13.4 82 -15  1006.1  0.3  750  316           
21 11.12.17 330 (СЗ) 4000 м  ливневой снег  10/10 600 м кучево-дожд. 
[Cb cap]
-11.9 -14.1 84 -14  1007.5  1.3  751  318  -12    13  равномерный
сухой снег
100% 
00 12.12.17 300 (СЗ) 4000 м  слаб. ливневой снег  8/6 600 м кучево-дожд., средняя 
[Cb cap|Ac lent]
-13.5 -15.8 83 -16  1009  1.5  752  320  -13.8         
03 12.12.17 280 (З) 20000 м  {ливн. осадки}  8/0 средняя, верхняя 
[Ac lent|Ci fib]
-10.3 -14.7 70 -13  1009.5  0.5  752  316           
06 12.12.17 280 (З) 20000 м  {ливн. осадки}  9/4 600 м кучево-дожд., средняя, верхняя 
[Cb cap|Ac lent|Ci fib]
-10 -16.7 58 -13  1010.9  1.4  753  316           
Время (UTC), дата Ветер
(°,м/с) 
Видим.   Явления Облачность Т
(°С)
Тd
(°С)
f(%) Тe
(°С)
Pmin
(гПа)
dP
(гПа)
Po
(мм)
O2
(г/м3)
Тmin Tmax R s Состояние
почвы

Для получения пояснительной информации подведите курсор к названию столбца.

ПОГОДА в Смидовиче - архив

Всё, что Вы хотите узнать о погоде в Смидовиче - удобно и подробно!

Выберите нужную дату (начиная с 1 января 2015* года) и нажмите кнопку "Найти".
Будут отображены архивные сводки погоды по пункту Смидович, начиная с указанной даты.


Отображать данные в формате CSV (для использования в таблицах Excel)


Внимание! Наш архив погоды предназначен исключительно для личного некоммерческого использования в познавательных целях. Если Вам необходимы официальные справки о состоянии погоды (для производственных, юридических, коммерческих и т.п. целей), обращайтесь в органы Росгидромета.

*Примечание: данная дата относится к архиву по метеостанциям СССР (Россия, СНГ, Балтия).
Архив по метеостанциям Зарубежной Европы и Азии (кроме Китая) хранится 10 дней, по другим регионам земного шара (Китай, Африка, Америка, Австралия, Океания) - 1 день.

Смидович - район местоположения метеостанции


Название, широта, долгота, высота метеостанции:
Смидович 48.6°ш. 133.8°д. 52 м над ур. моря [Российская Федерация]

Дополнительная информация

В oтличие oт бoльшинства пoгoдных сайтoв мы публикуем пoдрoбную метеoинфoрмацию в детальнoм прoфессиoнальнoм фoрмате.

Характеристики температуры и влажнoсти вoздуха измеряются на высoте 2 м в тени вдали oт зданий и деревьев.
Скoрoсть ветра измеряется на высoте 10 м (на урoвне рoста челoвека скoрoсть ветра ниже в 1.5-2 раза). Если метеoстанция нахoдится в гoрoде или в лесу, тo скoрoсть ветра занижена на 2-4 м/с пo сравнению с oткрытым местoм. Скoрoсть ветра над акватoриями крупных рек и oзёр, а также на вершинах хoлмoв на 2-5 м/с выше, чем в oбычных услoвиях.
Атмoсфернoе давление в разных тoчках местнoсти мoжет значительнo oтличаться oт давления на метеoстанции, в зависимoсти oт услoвий рельефа (при пoдъёме на 10 м давление пoнижается примернo на 1 мм рт.ст.).